Location: Fort Wayne
(41.1310°N, 85.1290°W)
Time: 18:06:41
(UTC-04:00)

OPAL - Visible Passes

Search period start: 19 April 2014 00:00
Search period end: 29 April 2014 00:00
Orbit: 745 x 796 km, 100.2° (Epoch: 19 April)

Date Brightness Start Highest point End Pass type
(mag) Time Alt. Az. Time Alt. Az. Time Alt. Az.
19 Apr 8.6 03:22:16 41° N 03:22:16 41° N 03:25:37 10° N visible
20 Apr 9.1 02:46:26 30° NE 02:46:26 30° NE 02:50:05 10° N visible
20 Apr 9.1 04:26:44 21° NW 04:26:44 21° NW 04:28:54 10° NW visible
21 Apr 9.9 02:10:36 16° ENE 02:10:48 16° ENE 02:13:53 10° NNE visible
21 Apr 8.4 03:50:54 40° NW 03:50:54 40° NW 03:54:13 10° NNW visible
22 Apr 8.4 03:15:04 47° NNE 03:15:04 47° NNE 03:19:00 10° N visible
22 Apr 9.5 04:55:21 14° WNW 04:55:21 14° WNW 04:56:31 10° NW visible
23 Apr 9.2 02:39:14 27° ENE 02:39:14 27° ENE 02:43:20 10° N visible
23 Apr 8.7 04:19:31 29° WNW 04:19:31 29° WNW 04:22:31 10° NNW visible
24 Apr 10.0 02:03:23 13° ENE 02:04:21 14° ENE 02:06:50 10° NNE visible
24 Apr 8.0 03:43:41 54° NNW 03:43:41 54° NNW 03:47:40 10° NNW visible
25 Apr 8.4 03:07:51 46° NE 03:07:51 46° NE 03:12:21 10° N visible
25 Apr 9.2 04:48:09 18° WNW 04:48:09 18° WNW 04:50:22 10° NW visible
26 Apr 9.4 02:32:01 23° ENE 02:32:34 23° ENE 02:36:33 10° N visible
26 Apr 8.2 04:12:19 38° WNW 04:12:19 38° WNW 04:16:04 10° NNW visible
27 Apr 10.2 01:56:15 10° ENE 01:57:54 12° NE 01:59:32 10° NE visible
27 Apr 7.6 03:36:29 71° N 03:36:29 71° N 03:41:06 10° NNW visible
27 Apr 9.6 05:16:47 10° WNW 05:16:47 10° WNW 05:16:56 10° WNW visible
28 Apr 8.6 03:00:39 39° ENE 03:00:54 39° ENE 03:05:40 10° N visible
28 Apr 8.8 04:40:57 24° WNW 04:40:57 24° WNW 04:44:07 10° NW visible
